Regional Weather Roundup
Issued by NWS Sioux Falls, SD

Home | Current Version | Previous Version | Text Only | Print | Product List | Glossary On
Versions: 1 2 3 4 5 6 7 8 9 10 11 12 13 14 15 16 17 18 19 20 21 22 23 24 25 26 27 28 29 30 31 32 33 34 35 36 37 38 39 40 41 42 43 44 45 46 47 48 49 50
000
ASUS43 KFSD 231602
RWRFSD

WEATHER ROUNDUP FOR SE SOUTH DAKOTA/SW MINNESOTA/NW IOWA
NATIONAL WEATHER SERVICE SIOUX FALLS SD
1100 AM CDT WED APR 23 2014

NOTE: "FAIR" INDICATES FEW OR NO CLOUDS BELOW 12,000 FEET WITH NO
SIGNIFICANT WEATHER AND OR OBSTRUCTIONS TO VISIBILITY.


SDZ038>040-050-052>070-231700-
SOUTHEAST SOUTH DAKOTA

CITY           SKY/WX    TMP DP  RH WIND       PRES   REMARKS
CHAMBERLAIN      N/A     61  39  44 S28G37    29.57F
HURON          CLOUDY    56  34  43 SE26G41   29.70R
MADISON        CLOUDY    50  34  53 SE33G45   29.75F
MITCHELL       CLOUDY    58  37  45 SE35G47   29.68S
SIOUX FALLS    CLOUDY    53  35  50 SE28G43   29.77F
WINNER         FAIR      66  39  37 S22G29    29.53F
YANKTON        CLOUDY    55  39  54 SE31G41   29.71F
$$

MNZ071-072-080-081-089-090-097-098-231700-
SOUTHWEST MINNESOTA

CITY           SKY/WX    TMP DP  RH WIND       PRES   REMARKS
FAIRMONT       CLOUDY    45  34  65 SE20G28   29.99R
JACKSON        CLOUDY    46  34  61 SE21G29   29.92F
LUVERNE        CLOUDY    50  32  50 SE24G36   29.85F
MARSHALL       CLOUDY    45  36  70 SE18G24   29.90F
MONTEVIDEO     CLOUDY    43  39  87 S23G30    29.94S
PIPESTONE      CLOUDY    46  34  61 SE22G29   29.84F
REDWOOD FALLS  CLOUDY    42  37  82 SE20      29.95F
TRACY          CLOUDY    46  37  70 SE17G29   29.91F
WINDOM         CLOUDY    45  36  70 E22       29.92F
WORTHINGTON    CLOUDY    46  28  49 SE22G28   29.90R
$$

IAZ001>003-012>014-020>022-031-032-NEZ013-014-SDZ071-231700-
NORTHWEST IOWA

CITY           SKY/WX    TMP DP  RH WIND       PRES   REMARKS
DENISON        CLOUDY    46  39  76 SE22G31   29.89F
ESTHERVILLE    CLOUDY    49  32  52 SE28G38   29.92F
SIOUX CITY     CLOUDY    53  42  66 SE29G43   29.80F
SPENCER        CLOUDY    50  30  46 SE28G38   29.89F
STORM LAKE     CLOUDY    46  37  71 SE24G32   29.89F
$$

ABBREVIATIONS USED IN REMARKS
   TC - TEMPERATURE IN CELSIUS
  WCI - WIND CHILL INDEX
   HX - HEAT INDEX
  VSB - VISIBILITY




USA.gov is the U.S. government's official web portal to all federal, state and local government web resources and services.